Regional Weather Roundup
Issued by NWS Sterling, VA

Home | Current Version | Previous Version | Text Only | Print | Product List | Glossary On
Versions: 1 2 3 4 5 6 7 8 9 10 11 12 13 14 15 16 17 18 19 20 21 22 23 24 25 26 27 28 29 30 31 32 33 34 35 36 37 38 39 40 41 42 43 44 45 46 47 48 49
000
ASUS41 KLWX 230110
RWRLWX

REGIONAL WEATHER ROUNDUP
NATIONAL WEATHER SERVICE BALTIMORE MD/WASHINGTON DC
900 PM EDT MON SEP 22 2014

Note: "FAIR" indicates few or no clouds below 12,000 feet
with no significant weather and/or obstructions to visibility.
 TC=TEMPERATURE CELSIUS

 * =Non NWS site. Station does not report precipitation (e.g. rain,
    snow, etc.), thunder, or fog.

DCZ001-MDZ009-015-VAZ040>042-051-053>054-230200-
WASHINGTON METRO

CITY           SKY/WX    TMP DP  RH WIND       PRES   REMARKS
WASHINGTON NAT PTCLDY    65  42  43 N12       30.18R
DULLES         MOCLDY    61  43  51 N7        30.18R
ANDREWS AFB    PTCLDY    61  43  51 N10       30.17R
QUANTICO       PTCLDY    60  51  72 NW7       30.18R
COLLEGE PARK*  PTCLDY    61  45  55 CALM      30.17R
LEESBURG*      MOCLDY    59  48  67 CALM      30.19R
MANASSAS*      MOCLDY    63  46  55 N7        30.18R
GAITHERSBURG*  PTCLDY    54  43  66 CALM      30.22R

$$

MDZ006>007-011-014-230200-
BALTIMORE METRO

CITY           SKY/WX    TMP DP  RH WIND       PRES   REMARKS
BWI AIRPORT    MOCLDY    59  44  57 NW6       30.16R
MD SCIENCE CTR   N/A     63  42  46 MISG      30.17R
MARTIN STATE   MOCLDY    63  46  55 NW7       30.17R
ANNAPOLIS      PTCLDY    64  47  53 MISG      30.16R
FORT MEADE*    MOCLDY    55  45  67 NW5       30.19R

$$

MDZ012-015-019>023-230200-
MARYLAND EASTERN SHORE

CITY           SKY/WX    TMP DP  RH WIND       PRES   REMARKS
OCEAN CITY     CLEAR     61  50  67 NW5       30.12R
SALISBURY      CLEAR     63  50  62 NW3       30.13R
BAY BRIDGE AP*   N/A     63  45  51 NW13G18   30.15R
CAMBRIDGE*     CLEAR     64  46  52 NW8       30.13R
EASTON*        CLEAR     63  50  63 CALM      30.18R

$$

MDZ017>025-230200-
SOUTHERN MARYLAND

CITY           SKY/WX    TMP DP  RH WIND       PRES   REMARKS
PATUXENT RIVER PTCLDY    65  46  50 N12       30.14R
ST INIGOES     CLEAR     61  47  59 CALM      30.14R
LEONARDTOWN*   CLEAR     61  45  55 N3        30.16R

$$

MDZ003>005-230200-
NORTH CENTRAL MARYLAND

CITY           SKY/WX    TMP DP  RH WIND       PRES   REMARKS
FREDERICK*     PTCLDY    59  46  63 N3        30.20
HAGERSTOWN APT PTCLDY    56  42  59 NW10      30.18R
WESTMINSTER*   PTCLDY    55  43  62 NW3       30.17R

$$

MDZ501>502-230200-
WESTERN MARYLAND

CITY           SKY/WX    TMP DP  RH WIND       PRES   REMARKS
OAKLAND*       MOCLDY    45 N/A N/A NW7       30.22R
CUMBERLAND*    PTCLDY    55  41  58 N3        30.25R

$$

VAZ025>031-230200-
SHENANDOAH VALLEY

CITY           SKY/WX    TMP DP  RH WIND       PRES   REMARKS
WINCHESTER*    PTCLDY    55  41  58 NW6       30.20R
STAUNTON*      MOCLDY    58  44  59 N5        30.21R

$$

WVZ021-048>050-054>055-230200-
EASTERN WEST VIRGINIA PANHANDLE

CITY           SKY/WX    TMP DP  RH WIND       PRES   REMARKS
MARTINSBURG    PTCLDY    59  40  49 NW8       30.20R
PETERSBURG*    CLEAR     53  42  66 CALM      30.22R

$$

VAZ036>039-050-230200-
CENTRAL FOOTHILLS

CITY           SKY/WX    TMP DP  RH WIND       PRES   REMARKS
CHARLOTTESVILL MOCLDY    60  48  64 N3        30.16R
ORANGE*        MOCLDY    61  43  51 NW7       30.18R

$$

VAZ055>057-230200-
NORTH AND CENTRAL PIEDMONT

CITY           SKY/WX    TMP DP  RH WIND       PRES   REMARKS
FREDERICKSBRG* PTCLDY    65  46  50 N7        30.15R
STAFFORD*      PTCLDY    56  49  78 CALM      30.21R

$$

NCZ024-NYZ072-PAZ021-071-VAZ022-071-230200-
OTHER REGIONAL OBSERVATIONS

CITY           SKY/WX    TMP DP  RH WIND       PRES   REMARKS
NEW YORK CITY  CLEAR     60  40  47 NW8G16    30.14R
PHILADELPHIA   MOCLDY    63  42  46 NW15      30.13R
PITTSBURGH     PTCLDY    51  41  68 N8        30.24R
ROANOKE        MOCLDY    59  48  67 NW9       30.20R
RICHMOND       MOCLDY    66  47  50 N9        30.14R
RALEIGH        CLOUDY    65  58  78 CALM      30.13R

$$

ANZ530>537-230200-
MARINE OBSERVATIONS

STATION/POSITION TIME  TEMP    WIND        PRES
                       AIR SEA DIR/SP/G
                 (UTC) (F)     (DEG/KT/KT) (MB)
THOMAS PT LIGHT  0100   63 73  320/ 10/ 11 1022.1R
BALT KEY BRIDGE  0100   64     310/ 17/ 19 1021.0R
COVE POINT       0100   67     350/ 16/ 19 1020.3R
LEWISETTA        0100   68 74   10/  8/ 12 1020.1R
SOLOMONS ISLAND  0100      75                N/A
PINEY POINT      0100           20/ 10/ 12   N/A

$$




USA.gov is the U.S. government's official web portal to all federal, state and local government web resources and services.